FW9451 Weather Reports


Display with metric or nautical units.
time (UTC)temp
F
wind
direction
speed
MPH
gust
MPH
rain 1hr
in
rain 24hr
in
rain mn
in
humidity
%
barometer
mb
20260505001550 64 224 5.0 9.0 0.00 0.00 0.00 40 1007.0
20260505000100 64 225 5.0 11.0 0.00 0.00 0.00 40 1006.8
20260504234555 64 215 5.0 8.0 0.00 0.00 0.00 40 1006.8
20260504233106 65 229 4.0 8.0 0.00 0.00 0.00 39 1006.7
20260504231549 66 231 6.0 9.0 0.00 0.00 0.00 38 1006.5
20260504230049 66 229 9.0 16.0 0.00 0.00 0.00 38 1006.2
20260504224550 66 219 6.0 14.0 0.00 0.00 0.00 38 1006.2
20260504223109 66 227 8.0 16.0 0.00 0.00 0.00 38 1006.1
20260504221554 66 247 3.0 10.0 0.00 0.00 0.00 39 1006.2
20260504220050 67 249 8.0 14.0 0.00 0.00 0.00 37 1006.1
20260504214548 67 293 6.0 13.0 0.00 0.00 0.00 36 1006.0
20260504213100 67 211 8.0 20.0 0.00 0.00 0.00 37 1006.1
20260504211545 67 246 13.0 20.0 0.00 0.00 0.00 37 1006.0
20260504210057 67 252 5.0 12.0 0.00 0.00 0.00 38 1005.9
20260504204555 67 215 5.0 13.0 0.00 0.00 0.00 39 1005.9
20260504203109 66 218 9.0 17.0 0.00 0.00 0.00 39 1005.9
20260504201601 66 297 10.0 18.0 0.00 0.00 0.00 39 1006.0
20260504200057 66 302 6.0 19.0 0.00 0.00 0.00 42 1006.2
20260504194552 65 261 7.0 17.0 0.00 0.00 0.00 42 1006.1
20260504193055 65 269 8.0 18.0 0.00 0.00 0.00 41 1006.1
20260504191557 65 280 9.0 21.0 0.00 0.00 0.00 41 1006.2
20260504190052 63 280 11.0 20.0 0.00 0.00 0.00 43 1006.3
20260504184551 64 257 6.0 13.0 0.00 0.00 0.00 43 1006.6
20260504183050 60 256 3.0 14.0 0.00 0.00 0.00 48 1006.5
20260504181557 61 284 2.0 14.0 0.00 0.00 0.00 45 1006.5
20260504180048 61 214 10.0 18.0 0.00 0.00 0.00 43 1006.6
20260504174549 61 259 11.0 21.0 0.00 0.00 0.00 43 1006.4
20260504173048 61 292 9.0 20.0 0.00 0.00 0.00 42 1006.7
20260504171557 62 241 16.0 26.0 0.00 0.00 0.00 38 1006.6
20260504081552 40 211 5.0 10.0 0.00 0.00 0.00 63 1008.8
20260504044556 39 225 6.0 10.0 0.00 0.00 0.00 65 1008.6
20260504043058 39 232 3.0 7.0 0.00 0.00 0.00 66 1008.6
20260504041554 40 246 5.0 9.0 0.00 0.00 0.00 64 1008.6
20260504040106 40 250 3.0 7.0 0.00 0.00 0.00 65 1008.6
20260504034613 40 252 4.0 8.0 0.00 0.00 0.00 64 1008.3
20260504033051 40 250 4.0 8.0 0.00 0.00 0.00 65 1008.3
20260504031552 40 234 3.0 7.0 0.00 0.00 0.00 66 1008.3
20260504030118 40 235 1.0 3.0 0.00 0.00 0.00 65 1008.2
20260504024558 41 236 2.0 5.0 0.00 0.00 0.00 65 1008.3
20260504023050 41 262 2.0 7.0 0.00 0.00 0.00 63 1008.3
20260504021559 41 244 2.0 7.0 0.00 0.00 0.00 64 1008.2
20260504020052 42 234 2.0 6.0 0.00 0.00 0.00 63 1008.1
20260504014601 43 247 3.0 8.0 0.00 0.03 0.00 62 1008.1
20260504013056 43 298 3.0 8.0 0.00 0.03 0.00 59 1008.1
20260504011553 43 298 3.0 9.0 0.00 0.03 0.00 58 1007.8
20260504010054 44 246 4.0 10.0 0.00 0.03 0.00 57 1007.7
20260504004601 44 317 4.0 9.0 0.00 0.05 0.00 55 1007.5
20260504003055 45 9 4.0 18.0 0.00 0.05 0.00 54 1007.2